Buena Park, CA

9:55 PM PDT on September 28, 2016 (GMT -0700)
Fullerton Municipal

Weather History for KFUL - April, 2015

Change the Weather History Date:

Tuesday, April 7, 2015

  Actual Average Record
Temperature  
Mean Temperature 59 °F 61 °F  
Max Temperature 68 °F 72 °F 90 °F (2014)
Min Temperature 50 °F 51 °F 46 °F (1999)
Degree Days  
Heating Degree Days 6 4  
Month to date heating degree days 9 31  
Since 1 July heating degree days 405 1123  
Cooling Degree Days 0 1  
Month to date cooling degree days 11 4  
Year to date cooling degree days 212 26  
Growing Degree Days 8 (Base 50)    
Moisture  
Dew Point 44 °F    
Average Humidity 51    
Maximum Humidity 68    
Minimum Humidity 34    
Precipitation  
Precipitation 0.00 in 0.03 in 0.55 in (2001)
Month to date precipitation 0.00 0.20  
Year to date precipitation 1.51 8.64  
Snow  
Snow 0.00 in - - ()
Month to date snowfall 0.0  
Snow Depth 0.00 in    
Sea Level Pressure  
Sea Level Pressure 30.01 in    
Wind  
Wind Speed 4 mph (South)    
Max Wind Speed 14 mph    
Max Gust Speed 21 mph    
Visibility 9 miles    
Events Rain    
T = Trace of Precipitation, MM = Missing Value Source: NWS Daily Summary

Daily Weather History Graph

Daily Weather History Graph

Search for Another Location

Airport or City:

Trip Planner

Search our weather history database for the weather conditions in past years. The results will help you decide how hot, cold, wet, or windy it might be!

Date:

Astronomy

Apr. 07, 2015 Rise Set
Actual Time 6:31 AM PDT 7:17 PM PDT
Civil Twilight 6:06 AM PDT 7:42 PM PDT
Nautical Twilight 5:36 AM PDT 8:12 PM PDT
Astronomical Twilight 5:05 AM PDT 8:43 PM PDT
Moon 10:28 PM PDT (4/7) 8:32 AM PDT (4/7)
Length of Visible Light 13h 36m
Length of Day
12h 45m
Waning Gibbous, 90% of the Moon is Illuminated
Apr 7
Waning Gibbous
Apr 11
Last Quarter
Apr 18
New
Apr 25
First Quarter
May 3
Full

Hourly Weather History & Observations

Time (PDT) Temp. Dew Point Humidity Pressure Visibility Wind Dir Wind Speed Gust Speed Precip Events Conditions
12:53 AM 55.9 °F 42.1 °F 60% 30.00 in 10.0 mi Calm Calm - N/A   Clear
1:53 AM 54.0 °F 42.1 °F 64% 30.00 in 10.0 mi Calm Calm - N/A   Clear
2:53 AM 53.1 °F 43.0 °F 69% 30.00 in 10.0 mi Calm Calm - N/A   Clear
3:53 AM 51.1 °F 41.0 °F 68% 30.00 in 10.0 mi ENE 3.5 mph - N/A   Clear
4:53 AM 51.1 °F 39.9 °F 66% 30.01 in 10.0 mi East 3.5 mph - N/A   Clear
5:53 AM 50.0 °F 39.9 °F 68% 30.01 in 10.0 mi East 3.5 mph - N/A   Clear
6:53 AM 50.0 °F 39.0 °F 66% 30.02 in 10.0 mi East 5.8 mph - N/A   Clear
7:53 AM 54.0 °F 39.9 °F 59% 30.03 in 10.0 mi East 4.6 mph - N/A   Clear
8:53 AM 60.1 °F 39.0 °F 46% 30.03 in 10.0 mi Calm Calm - N/A   Clear
9:53 AM 62.1 °F 36.0 °F 38% 30.04 in 10.0 mi Calm Calm - N/A   Clear
10:53 AM 64.9 °F 36.0 °F 34% 30.06 in 10.0 mi Variable 4.6 mph - N/A   Scattered Clouds
11:53 AM 63.0 °F 37.0 °F 38% 30.05 in 10.0 mi Calm Calm - N/A   Overcast
12:53 PM 66.0 °F 39.0 °F 37% 30.04 in 10.0 mi SSW 9.2 mph - N/A   Overcast
1:53 PM 66.9 °F 41.0 °F 39% 30.03 in 10.0 mi Variable 5.8 mph - N/A   Partly Cloudy
2:53 PM 66.9 °F 39.9 °F 37% 30.01 in 10.0 mi Calm Calm - N/A   Mostly Cloudy
3:53 PM 64.0 °F 42.1 °F 45% 30.00 in 10.0 mi SSW 9.2 mph 18.4 mph N/A   Overcast
4:53 PM 63.0 °F 43.0 °F 48% 29.99 in 10.0 mi SSW 9.2 mph - N/A   Overcast
5:53 PM 59.0 °F 48.9 °F 69% 29.99 in 8.0 mi South 5.8 mph - 0.00 in Rain Light Rain
6:49 PM 60.8 °F 48.2 °F 63% 29.98 in 10.0 mi SSW 10.4 mph - 0.00 in   Overcast
6:53 PM 60.1 °F 48.0 °F 64% 29.99 in 10.0 mi South 9.2 mph - 0.00 in   Overcast
7:53 PM 55.9 °F 50.0 °F 80% 30.00 in 4.0 mi West 4.6 mph - 0.07 in Rain Rain
8:03 PM 55.0 °F 50.0 °F 83% 30.00 in 1.8 mi Variable 3.5 mph - 0.05 in Rain Heavy Rain
8:10 PM 55.0 °F 51.1 °F 86% 30.01 in 2.5 mi WSW 4.6 mph - 0.07 in Rain Rain
8:35 PM 55.0 °F 52.0 °F 89% 30.01 in 6.0 mi Calm Calm - 0.14 in Rain Light Rain
8:53 PM 55.9 °F 52.0 °F 87% 30.01 in 10.0 mi Calm Calm - 0.14 in   Overcast
9:53 PM 57.0 °F 52.0 °F 83% 30.02 in 10.0 mi Calm Calm - N/A   Mostly Cloudy
10:53 PM 57.0 °F 52.0 °F 83% 30.02 in 10.0 mi Calm Calm - N/A   Partly Cloudy
11:53 PM 55.9 °F 51.1 °F 84% 30.03 in 10.0 mi SW 3.5 mph - N/A   Clear